Location: Cactus School
(34.5700°N, 118.0931°W)
Time: 23:53:18
(UTC-07:00)

Vanguard 2 - Pass Details

Date: 26 April 2024
Orbit: 553 x 2914 km, 32.9° (Epoch: 18 May)

Event Time Altitude Azimuth Distance (km) Brightness Sun altitude
Exits shadow 01:35:21 77° 167° (SSE) 2,542 9.7 -40.5°
Maximum altitude 01:35:24 77° 165° (SSE) 2,544 9.7 -40.5°
Drops below altitude 10° 01:52:58 10° 83° (E) 5,738 12.2 -39.4°
Sets 01:57:30 0° 83° (E) 6,747 12.6 -39.1°
